Tracking 31027 objects as of 19-Jul-2025
HD Live streaming from Space Station
objects crossing your sky now

SL-16 DEB

Track SL-16 DEB now!
10-day predictions


NORAD ID: 16389
Int'l Code: 1985-097C
Perigee: 843.4 km
Apogee: 1,122.3 km
Inclination: 71.0 °
Period: 104.6 minutes
Semi major axis: 7353 km
RCS: 0.0898 m2 (small)
Launch date: October 22, 1985
Source: Commonwealth of Independent States (former USSR) (CIS)
Launch site: TYURATAM MISSILE AND SPACE COMPLEX (TTMTR)

Note: This is SATELLITE DEBRIS
Your satellite tracking list
CZ-4C DEB
Track 1 satellite(s)




NASA's NSSDC Master Catalog

Two Line Element Set (TLE):
1 16389U 85097C   25199.41220047  .00000089  00000-0  11864-3 0  9992
2 16389  71.0012 100.3358 0189604 296.1221  62.0481 13.76676606995148
Source of the keplerian elements: AFSPC